DW9936 Weather Reports


time (UTC)temp
C
wind
direction
speed
KPH
gust
KPH
rain 1hr
cm
rain 24hr
cm
rain mn
cm
humidity
%
barometer
mb
20260503021533 6 323 0.0 0.0 0.00 0.00 0.00 79 1017.9
20260503020036 6 323 0.0 0.0 0.00 0.00 0.00 79 1017.9
20260503014530 6 323 0.0 0.0 0.00 0.00 0.00 78 1018.0
20260503013029 6 323 0.0 0.0 0.00 0.00 0.00 78 1018.0
20260503011528 7 323 0.0 0.0 0.00 0.00 0.00 77 1018.1
20260503010025 7 323 0.0 0.0 0.00 0.00 0.00 76 1018.2
20260503004522 7 323 0.0 0.0 0.00 0.00 0.00 75 1018.2
20260503003030 7 323 0.0 0.0 0.00 0.00 0.00 74 1018.3
20260503001519 7 323 0.0 0.0 0.00 0.00 0.00 73 1018.3
20260503000026 8 323 0.0 0.0 0.00 0.00 0.00 73 1018.5
20260502234521 8 323 0.0 0.0 0.00 0.00 0.00 73 1018.6
20260502233012 8 323 0.0 0.0 0.00 0.00 0.00 72 1018.7
20260502231509 8 323 0.0 0.0 0.00 0.00 0.00 71 1018.8
20260502230006 9 323 0.0 0.0 0.00 0.00 0.00 69 1018.8
20260502224503 9 323 0.0 0.0 0.00 0.00 0.00 69 1018.9
20260502223107 10 323 0.0 0.0 0.00 0.00 0.00 68 1019.0
20260502221602 10 323 0.0 0.0 0.00 0.00 0.00 66 1019.0
20260502214613 11 323 0.0 0.0 0.00 0.00 0.00 63 1019.1
20260502213118 11 323 0.0 0.0 0.00 0.00 0.00 61 1019.2
20260502211557 12 323 0.0 0.0 0.00 0.00 0.00 60 1019.2
20260502210053 12 323 0.0 0.0 0.00 0.00 0.00 59 1019.3
20260502204553 12 323 0.0 0.0 0.00 0.00 0.00 57 1019.4
20260502203111 13 323 0.0 0.0 0.00 0.00 0.00 55 1019.6
20260502201551 13 323 0.0 0.0 0.00 0.00 0.00 53 1019.5
20260502200057 14 321 0.0 3.2 0.00 0.00 0.00 52 1019.6
20260502194552 15 115 0.0 0.0 0.00 0.00 0.00 50 1019.6
20260502193050 15 116 0.0 0.0 0.00 0.00 0.00 48 1019.5
20260502191553 16 116 0.0 0.0 0.00 0.00 0.00 46 1019.5
20260502190050 16 116 0.0 0.0 0.00 0.00 0.00 46 1019.4
20260502184549 17 116 0.0 0.0 0.00 0.00 0.00 45 1019.3
20260502183049 18 116 0.0 0.0 0.00 0.00 0.00 43 1019.1
20260502181549 19 116 0.0 0.0 0.00 0.00 0.00 40 1019.0
20260502163054 23 123 0.0 6.4 0.00 0.00 0.00 30 1019.3
20260502161555 23 240 0.0 4.8 0.00 0.00 0.00 29 1019.4
20260502151536 25 92 0.0 4.8 0.00 0.00 0.00 26 1020.1
20260502123017 24 142 0.0 6.4 0.00 0.00 0.00 29 1022.1
20260502121513 24 284 0.0 6.4 0.00 0.00 0.00 31 1022.4
20260502114510 24 112 0.0 8.0 0.00 0.00 0.00 30 1022.7
20260502113006 23 321 0.0 4.8 0.00 0.00 0.00 32 1023.0
20260502111503 23 148 0.0 3.2 0.00 0.00 0.00 32 1023.2
20260502110001 23 210 0.0 4.8 0.00 0.00 0.00 31 1023.4
20260502104558 22 245 0.0 6.4 0.00 0.00 0.00 33 1023.5
20260502103056 22 107 1.6 8.0 0.00 0.00 0.00 34 1023.7
20260502101601 22 98 0.0 6.4 0.00 0.00 0.00 33 1023.9
20260502071509 17 155 0.0 1.6 0.00 0.00 0.00 52 1025.5
20260502070005 16 105 0.0 1.6 0.00 0.00 0.00 54 1025.6
20260502064601 15 189 0.0 1.6 0.00 0.00 0.00 56 1025.6
20260502063057 15 185 0.0 1.6 0.00 0.00 0.00 58 1025.7
20260502061551 13 129 0.0 1.6 0.00 0.00 0.00 59 1025.8
20260502060053 12 124 0.0 1.6 0.00 0.00 0.00 62 1025.8
20260502054543 11 44 0.0 1.6 0.00 0.00 0.00 65 1025.8
20260502053040 10 42 0.0 0.0 0.00 0.00 0.00 71 1025.9
20260502051537 8 355 0.0 1.6 0.00 0.00 0.00 74 1026.0
20260502050042 7 355 0.0 0.0 0.00 0.00 0.00 78 1025.9
20260502044537 6 18 0.0 0.0 0.00 0.00 0.00 80 1025.9
20260502043037 6 14 0.0 0.0 0.00 0.00 0.00 82 1025.8
20260502041530 5 15 0.0 0.0 0.00 0.00 0.00 82 1025.7
20260502040028 5 15 0.0 0.0 0.00 0.00 0.00 80 1025.7
20260502034526 5 15 0.0 0.0 0.00 0.00 0.00 80 1025.6
20260502033027 5 15 0.0 1.6 0.00 0.00 0.00 81 1025.6
20260502031524 5 279 0.0 0.0 0.00 0.00 0.00 79 1025.5
20260502030024 5 279 0.0 0.0 0.00 0.00 0.00 78 1025.5
20260502024526 6 279 0.0 0.0 0.00 0.00 0.00 77 1025.5
20260502023019 6 279 0.0 0.0 0.00 0.00 0.00 75 1025.5